sat.trackr.live / text

‹ back to catalog

STARLINK-31425

NORAD 59253 · 2024-049Y

PAYLOAD ACTIVE UNKNOWN

§ Identity

Operator
Country
US
Launch date
2024-03-16
Launch site
AFETR
Launch vehicle
Mass (kg)
RCS (m²)

Purposes: comms

External: N2YO · Heavens-Above · Gunter

§ Orbital elements

Epoch: 2026-05-24T23:10:29.970624Z

Period
94.27 min
Inclination
43.0024°
Eccentricity
0.0000799
Mean motion
15.27574296 rev/d
Perigee alt
482.5 km
Apogee alt
483.6 km
Semi-major
6,861.2 km
B*
-6.0109e-6
RAAN
72.5866°
Arg perigee
267.9135°
Mean anomaly
92.1625°
Rev number
12,406

§ Raw data

STARLINK-314251 59253U 24049Y   26144.96562466 -.00000427  00000+0 -60109-5 0  99992 59253  43.0024  72.5866 0000799 267.9135  92.1625 15.27574296124067

JSON: /api/v1/satellites/59253 · /tle

For live sub-satellite position, see the globe view (requires WebGL).

§ Visibility from observer

Set your observer location to see the next 7 days of passes ≥ 10°. The values pass through the URL so the page stays shareable.

No JS? Fill the form by hand. The geolocation button needs JavaScript.